Location: Axtheid
(49.6213°N, 11.8205°E)
Time: 04:45:11
(UTC+00:00)

FENGYUN 3A - Pass Details

Date: 18 February 2020
Orbit: 824 x 836 km, 98.4° (Epoch: 02 April)

Event Time Altitude Azimuth Distance (km) Brightness Sun altitude
Rises 04:30:24 0° 15° (NNE) 3,397 7.1 -18.1°
Reaches altitude 10° 04:32:46 10° 17° (NNE) 2,460 6.3 -17.7°
Maximum altitude 04:38:14 78° 103° (ESE) 859 3.8 -16.8°
Drops below altitude 10° 04:43:41 10° 191° (S) 2,443 6.0 -15.9°
Sets 04:46:02 0° 193° (SSW) 3,373 6.7 -15.5°
